TimeCST,TemperatureF,Dew PointF,Humidity,Sea Level PressureIn,VisibilityMPH,Wind Direction,Wind SpeedMPH,Gust SpeedMPH,PrecipitationIn,Events,Conditions,WindDirDegrees,DateUTC
12:52 AM,30.0,23.0,75,29.94,10.0,Calm,Calm,-,N/A,,Partly Cloudy,0,2014-02-22 06:52:00
1:52 AM,26.1,23.0,88,29.94,10.0,Calm,Calm,-,N/A,,Clear,0,2014-02-22 07:52:00
2:52 AM,26.1,21.9,84,29.91,10.0,Calm,Calm,-,N/A,,Clear,0,2014-02-22 08:52:00
3:52 AM,26.1,21.9,84,29.90,10.0,Calm,Calm,-,N/A,,Clear,0,2014-02-22 09:52:00
4:52 AM,24.1,21.9,91,29.91,10.0,Calm,Calm,-,N/A,,Clear,0,2014-02-22 10:52:00
5:52 AM,26.1,21.9,84,29.92,10.0,Calm,Calm,-,N/A,,Clear,0,2014-02-22 11:52:00
6:52 AM,23.0,21.0,92,29.94,10.0,SW,3.5,-,N/A,,Clear,230,2014-02-22 12:52:00
7:52 AM,28.0,24.1,85,29.96,10.0,North,3.5,-,N/A,,Clear,350,2014-02-22 13:52:00
8:52 AM,32.0,27.0,82,29.96,10.0,Calm,Calm,-,N/A,,Clear,0,2014-02-22 14:52:00
9:52 AM,39.9,27.0,60,29.96,10.0,Calm,Calm,-,N/A,,Clear,0,2014-02-22 15:52:00
10:52 AM,48.0,28.0,46,29.96,10.0,ENE,6.9,-,N/A,,Clear,60,2014-02-22 16:52:00
11:52 AM,52.0,27.0,38,29.95,10.0,ENE,6.9,-,N/A,,Clear,70,2014-02-22 17:52:00
12:52 PM,55.9,28.0,34,29.92,10.0,NE,10.4,-,N/A,,Clear,40,2014-02-22 18:52:00
1:52 PM,54.0,30.9,41,29.92,10.0,NE,16.1,21.9,N/A,,Clear,50,2014-02-22 19:52:00
2:52 PM,53.1,33.1,47,29.93,10.0,NE,17.3,-,N/A,,Clear,40,2014-02-22 20:52:00
3:52 PM,51.1,32.0,48,29.95,10.0,NE,16.1,-,N/A,,Clear,40,2014-02-22 21:52:00
4:52 PM,48.0,30.9,52,29.97,10.0,NE,18.4,-,N/A,,Clear,40,2014-02-22 22:52:00
5:52 PM,43.0,30.0,60,30.00,10.0,NE,17.3,24.2,N/A,,Clear,40,2014-02-22 23:52:00
6:52 PM,37.9,28.9,70,30.04,10.0,NE,11.5,-,N/A,,Clear,40,2014-02-23 00:52:00
7:52 PM,36.0,28.0,73,30.05,10.0,ENE,13.8,-,N/A,,Clear,60,2014-02-23 01:52:00
8:52 PM,34.0,28.0,79,30.06,10.0,NE,15.0,-,N/A,,Clear,50,2014-02-23 02:52:00
9:52 PM,33.1,26.1,75,30.08,10.0,NE,16.1,-,N/A,,Clear,40,2014-02-23 03:52:00
10:52 PM,32.0,23.0,69,30.11,10.0,NNE,15.0,-,N/A,,Clear,30,2014-02-23 04:52:00
11:52 PM,30.9,19.9,64,30.14,10.0,NE,16.1,-,N/A,,Clear,40,2014-02-23 05:52:00